Wind_Speed
11 10 7 11 10 11 12 17 14 15 16 23 29 29 34 38 39 40 34 29 32 33 34 34 36 37 38 38 35 33 32 31 30 29 31 31 31 30 31 30 31 30 29
13 9 10 10 9 8 8 13 14 12 12 16 22 30 30 29 29 36 39 33 29 30 35 33 33 35 37 38 37 37 36 37 35 36 36 37 35 36 34 33 32 31 31
14 12 10 9 9 5 4 6 7 10 10 12 17 24 25 28 32 32 35 38 35 35 36 36 32 33 32 35 37 36 36 37 38 37 39 41 43 43 41 41 39 38 38
16 18 13 11 9 5 2 4 4 7 8 11 13 17 19 21 25 25 24 25 34 32 33 34 30 30 31 30 32 33 34 35 35 37 39 37 37 39 38 38 38 39 37
13 14 16 14 8 4 3 0 4 7 7 8 10 12 14 17 17 19 31 18 23 28 27 30 29 28 28 28 27 28 28 29 29 29 31 31 31 32 31 31 32 32 32
3 10 13 12 13 14 12 9 5 7 10 9 9 9 11 12 11 17 21 16 16 19 19 19 23 25 23 23 23 24 26 27 27 26 27 27 26 26 26 26 25 26 26
8 7 5 2 2 4 6 6 7 8 8 11 13 10 11 13 10 14 14 17 13 15 13 16 19 18 17 16 17 18 21 22 23 23 23 23 23 24 24 24 23 22 20
13 12 4 3 4 1 5 4 3 4 5 6 11 12 15 11 12 10 14 14 12 11 11 14 18 19 13 11 14 13 15 16 16 17 18 16 16 16 17 17 17 16 15
13 15 11 8 9 9 10 12 10 7 7 10 11 11 13 12 12 14 12 13 14 10 11 8 10 12 7 4 9 7 10 10 11 11 11 11 11 11 11 11 10 10 10
22 16 12 14 14 14 16 18 17 16 17 15 16 12 12 14 14 15 13 13 14 14 16 17 9 5 10 9 6 5 7 5 6 10 10 9 8 7 6 8 8 7 5
23 21 21 21 23 23 21 20 22 22 22 21 20 18 16 17 16 16 20 17 13 13 15 17 15 12 6 11 9 11 9 11 10 6 11 13 11 9 10 11 11 12 11
28 26 25 25 25 26 27 25 24 23 23 22 23 23 22 21 23 21 22 19 18 15 15 13 13 13 13 7 12 10 11 13 13 13 11 13 17 15 13 13 13 14 15
30 30 32 31 31 31 31 33 33 33 29 30 26 25 26 27 26 24 24 26 25 22 24 23 20 18 14 13 11 11 14 13 14 12 13 11 13 17 17 16 18 19 20
31 31 30 30 32 31 34 34 34 38 39 37 34 29 29 27 27 28 30 31 32 36 33 30 29 29 26 23 20 16 18 16 17 14 12 16 20 21 23 23 23 23 22
34 32 32 32 28 21 21 25 31 33 31 32 28 27 27 29 33 35 36 38 40 41 41 39 36 34 34 31 30 25 22 19 23 23 21 25 25 27 28 30 27 27 28
34 33 29 22 19 19 20 24 28 24 25 26 24 25 29 32 30 26 27 31 35 38 40 44 45 43 38 37 36 32 30 27 27 28 27 27 24 25 28 30 27 29 27
25 23 22 21 23 23 22 20 17 8 11 18 20 21 18 19 21 23 22 20 20 20 22 29 39 46 48 41 36 35 32 32 30 27 29 26 23 27 26 27 27 22 21
28 26 25 24 24 22 22 19 16 11 8 10 11 15 18 19 20 22 21 19 18 19 21 23 30 39 47 49 46 42 38 36 35 32 30 24 25 30 29 28 26 25 23
31 32 31 30 29 29 24 20 19 18 13 13 17 18 20 18 18 22 26 24 21 21 23 26 28 26 33 43 49 48 42 39 38 32 26 27 27 30 31 29 28 30 32
36 36 35 35 33 29 26 23 23 24 22 20 22 23 23 24 24 24 25 22 23 22 22 26 28 27 24 28 38 41 43 44 43 39 35 33 38 38 32 30 37 38 38
39 38 40 39 37 34 30 27 25 25 25 24 22 26 28 28 28 27 26 23 24 23 24 25 26 27 25 20 22 29 37 39 40 38 34 33 37 37 32 30 32 37 41
44 43 41 40 41 38 34 33 30 31 32 31 28 30 31 28 30 31 33 33 29 26 25 28 27 23 24 18 15 20 25 29 31 30 32 33 33 34 35 39 42 44 42
45 45 45 44 40 41 40 36 35 36 34 38 38 34 33 34 31 34 36 37 35 31 28 28 33 28 25 18 14 13 19 24 27 28 28 31 32 35 37 38 38 38 40
44 44 43 42 44 44 40 37 35 33 33 32 30 35 38 37 38 37 35 37 35 34 31 32 33 30 26 27 24 24 22 23 26 27 29 31 30 24 23 27 34 37 40
44 43 41 41 42 43 44 43 39 36 40 36 43 48 44 42 44 41 38 35 36 37 33 33 32 28 25 23 23 25 27 28 26 26 27 23 23 30 37 43 46 49 52
52 50 47 46 43 45 47 40 41 45 48 39 44 47 45 47 46 39 40 37 37 33 33 33 30 27 26 24 24 25 27 28 29 31 31 32 38 43 49 54 58 59 62
Wind_Direction
163 155 160 121 89 68 66 69 41 40 23 29 35 46 43 39 46 53 52 53 60 61 65 67 70 70 68 68 66 66 67 67 68 68 66 70 72 73 74 76 76 77 76
168 167 173 153 124 95 71 69 60 25 37 35 39 43 53 59 43 50 54 52 51 50 56 59 64 73 72 68 69 70 71 74 74 76 75 76 71 72 75 77 77 77 80
173 183 174 180 153 135 91 61 46 41 40 35 38 49 60 55 53 50 52 56 58 62 63 63 66 66 70 78 78 77 79 79 82 85 86 86 86 86 86 87 87 87 88
186 192 187 187 169 153 163 7 1 24 27 29 33 39 52 54 49 45 31 36 50 61 66 63 60 66 71 72 81 84 83 82 84 83 84 88 86 85 86 86 84 87 88
195 212 191 201 193 166 183 98 322 318 338 11 15 24 23 29 55 21 34 55 47 42 50 66 60 57 62 70 71 79 80 81 81 84 83 83 83 80 81 82 82 83 84
241 215 216 250 265 256 252 256 276 287 294 321 339 344 6 8 40 30 24 60 46 38 45 32 34 48 46 56 65 63 70 73 74 75 78 76 74 75 74 73 76 78 81
255 173 138 166 281 248 230 248 291 279 298 291 309 324 334 352 348 17 33 23 12 14 36 22 16 37 40 55 54 59 64 64 66 71 67 67 68 67 67 68 71 72 76
236 239 220 219 184 327 338 295 295 317 280 297 281 306 290 310 320 3 9 7 33 0 35 23 24 20 13 16 32 52 58 52 57 60 64 59 62 62 59 61 65 66 66
238 240 252 222 242 281 291 289 280 281 301 292 288 296 286 287 294 310 330 322 337 351 337 341 351 4 21 20 11 14 40 35 23 29 37 45 38 41 39 43 45 47 50
233 242 261 253 261 271 288 286 279 268 277 282 290 288 308 294 284 293 307 315 313 315 312 321 342 349 322 328 17 348 348 12 6 354 356 8 16 4 2 3 2 357 1
238 246 256 262 269 280 286 276 269 274 268 274 278 276 286 301 293 287 289 301 301 291 295 310 314 313 312 270 335 333 324 328 322 333 323 319 330 334 319 318 321 323 313
240 250 258 262 269 279 281 270 268 267 278 271 259 269 270 275 283 288 296 305 307 304 297 289 298 302 305 290 278 311 305 302 303 312 314 310 312 317 311 310 305 295 296
241 252 262 269 273 276 273 273 273 272 276 271 270 264 272 275 272 278 284 290 289 291 290 292 294 287 281 283 285 293 308 306 301 295 315 315 316 312 311 305 309 299 296
249 253 260 270 276 281 284 283 278 272 268 268 267 268 275 274 271 276 279 278 276 283 285 275 275 280 280 277 276 279 292 294 305 310 316 306 315 320 315 309 303 300 298
251 258 261 264 272 269 274 286 289 277 261 258 262 260 266 269 275 281 281 279 276 276 278 276 273 267 274 274 274 273 279 276 273 296 308 306 314 319 316 314 308 303 300
252 248 249 247 251 267 288 308 300 278 256 250 260 259 264 272 276 278 285 285 277 273 274 275 271 270 266 266 270 267 270 276 279 274 296 298 308 320 315 314 311 310 303
234 232 233 232 245 267 290 306 324 302 245 246 262 271 268 264 273 282 286 298 300 297 295 290 286 276 268 260 258 259 265 270 279 282 285 290 300 292 296 305 308 305 308
238 237 239 242 253 274 286 286 300 319 276 249 269 265 269 274 283 287 293 300 300 304 312 315 304 287 277 266 255 251 254 262 271 277 278 292 294 294 293 294 292 289 301
248 250 250 254 258 267 273 271 268 274 270 273 273 273 276 281 287 287 292 297 303 307 312 317 326 302 284 274 260 252 256 260 266 270 275 286 281 278 283 289 298 290 293
250 247 249 253 256 260 265 270 264 260 264 262 267 267 272 279 285 284 297 284 293 303 310 318 325 331 306 284 268 255 255 258 261 265 270 271 273 271 276 292 288 291 294
249 250 247 251 253 259 263 268 274 266 267 266 276 279 274 275 282 283 282 280 284 293 294 307 317 325 336 314 284 260 253 258 261 265 270 274 275 276 276 277 286 290 293
252 252 252 252 251 256 260 268 272 268 270 272 277 285 284 281 279 278 276 282 287 293 301 294 296 314 326 336 299 276 268 263 265 268 269 274 272 279 284 276 287 292 297
248 251 253 255 258 259 262 266 269 269 271 269 279 288 285 280 278 281 280 276 281 285 293 302 293 296 299 304 309 298 281 275 275 275 276 278 281 282 284 287 293 297 291
249 251 252 253 253 254 258 258 256 262 270 275 273 277 275 276 281 282 280 277 276 283 292 299 301 298 286 282 283 278 270 269 273 278 278 280 285 290 295 305 306 305 301
246 248 249 250 251 250 249 250 253 254 256 264 264 272 268 275 275 277 280 277 276 281 288 296 298 294 289 278 278 272 269 271 265 268 275 267 270 295 300 299 306 310 313
247 247 247 248 248 247 247 244 246 251 257 261 255 260 265 260 275 275 280 281 278 280 286 289 289 289 286 283 281 271 265 255 258 268 270 275 287 295 298 299 301 303 306
Height
10989 10990 10991 10991 10991 10989 10988 10987 10988 10985 10986 10984 10981 10978 10973 10969 10966 10960 10957 10957 10955 10952 10949 10948 10944 10943 10940 10937 10935 10934 10931 10927 10928 10929 10926 10925 10923 10922 10921 10921 10922 10922 10922
10989 10992 10992 10992 10992 10992 10992 10991 10989 10988 10988 10988 10986 10983 10980 10975 10973 10968 10967 10963 10961 10958 10955 10954 10954 10948 10946 10942 10943 10940 10939 10935 10934 10934 10933 10930 10929 10929 10928 10927 10927 10928 10929
10990 10992 10993 10994 10993 10993 10994 10994 10993 10992 10992 10992 10991 10989 10986 10982 10978 10976 10973 10973 10968 10965 10963 10960 10962 10960 10956 10954 10952 10951 10949 10944 10943 10943 10940 10938 10938 10936 10936 10937 10937 10938 10938
10991 10992 10994 10994 10993 10995 10995 10996 10995 10995 10996 10995 10993 10992 10990 10987 10985 10983 10980 10980 10976 10974 10971 10969 10970 10967 10963 10962 10959 10960 10957 10954 10953 10952 10949 10947 10948 10946 10945 10946 10947 10946 10946
10991 10992 10996 10995 10995 10997 10998 10998 10997 10997 10999 10999 10997 10995 10994 10991 10990 10986 10985 10984 10982 10981 10981 10979 10979 10975 10973 10971 10971 10968 10963 10961 10960 10957 10956 10956 10955 10955 10955 10955 10955 10954 10954
10991 10993 10995 10996 10997 10998 10997 10998 11000 11000 11000 10998 10998 10998 10997 10995 10993 10991 10989 10989 10987 10986 10986 10986 10983 10980 10981 10978 10976 10975 10970 10967 10965 10963 10962 10963 10963 10962 10962 10963 10962 10962 10962
10990 10991 10994 10996 10997 10997 10997 10998 10999 10999 11000 11001 10999 11000 11000 11000 10998 10995 10994 10991 10990 10990 10989 10986 10983 10982 10984 10984 10982 10980 10976 10974 10970 10968 10968 10967 10968 10968 10968 10968 10968 10968 10968
10989 10992 10993 10994 10996 10998 10999 11000 11001 11002 11001 11002 11003 11001 11001 11000 10999 10999 10997 10997 10996 10994 10991 10988 10986 10985 10985 10986 10985 10982 10980 10978 10978 10976 10974 10975 10974 10974 10973 10973 10972 10972 10972
10987 10990 10991 10993 10995 10997 10999 10999 11000 11002 11002 11001 11001 11001 11001 11000 10999 10998 10998 10997 10996 10994 10993 10991 10989 10988 10987 10988 10986 10984 10982 10982 10982 10980 10978 10977 10977 10977 10976 10975 10976 10975 10975
10985 10987 10988 10989 10992 10996 10996 10997 10997 10998 10999 10999 10998 10997 10997 10996 10995 10995 10996 10996 10995 10993 10993 10992 10992 10990 10989 10987 10986 10984 10982 10981 10981 10981 10980 10979 10978 10978 10978 10977 10976 10976 10976
10980 10983 10985 10986 10988 10991 10992 10994 10993 10993 10995 10996 10995 10994 10994 10993 10993 10994 10994 10995 10993 10993 10992 10990 10989 10988 10988 10987 10986 10985 10984 10984 10982 10979 10981 10981 10980 10978 10977 10978 10977 10976 10976
10976 10978 10981 10983 10983 10985 10988 10988 10989 10989 10990 10992 10993 10992 10992 10991 10990 10990 10990 10990 10991 10992 10990 10989 10987 10987 10985 10987 10986 10986 10986 10984 10982 10981 10979 10980 10981 10980 10978 10977 10977 10976 10975
10971 10973 10975 10978 10979 10979 10980 10981 10982 10983 10984 10985 10986 10987 10987 10987 10987 10987 10986 10983 10983 10986 10987 10985 10984 10984 10984 10984 10985 10984 10982 10980 10979 10979 10979 10978 10978 10978 10977 10975 10974 10973 10972
10964 10967 10968 10970 10972 10972 10972 10973 10972 10972 10974 10976 10978 10980 10980 10981 10980 10980 10980 10979 10977 10975 10977 10978 10978 10977 10979 10980 10980 10980 10980 10978 10977 10975 10975 10975 10975 10974 10973 10972 10970 10969 10968
10957 10961 10963 10964 10965 10966 10967 10966 10962 10961 10961 10965 10969 10971 10973 10974 10974 10973 10972 10972 10971 10969 10967 10968 10969 10971 10970 10972 10973 10974 10975 10974 10972 10971 10970 10970 10969 10968 10967 10966 10964 10963 10962
10952 10954 10957 10959 10960 10962 10962 10960 10954 10949 10952 10957 10961 10964 10966 10967 10967 10966 10965 10962 10961 10961 10960 10956 10957 10959 10962 10963 10963 10965 10967 10967 10966 10966 10966 10965 10964 10963 10961 10960 10958 10957 10957
10947 10949 10951 10953 10956 10957 10957 10956 10952 10948 10949 10953 10956 10958 10959 10961 10961 10961 10960 10958 10956 10954 10954 10951 10946 10944 10947 10952 10954 10956 10958 10959 10960 10960 10961 10959 10958 10956 10955 10954 10952 10951 10950
10943 10944 10946 10948 10950 10952 10952 10952 10950 10949 10949 10951 10953 10955 10956 10957 10956 10955 10954 10954 10952 10951 10949 10947 10942 10933 10929 10934 10941 10945 10949 10951 10952 10953 10953 10952 10950 10948 10948 10946 10945 10944 10943
10936 10938 10940 10942 10944 10945 10947 10948 10948 10948 10949 10949 10950 10950 10951 10952 10952 10951 10949 10947 10946 10945 10943 10941 10937 10930 10924 10920 10923 10932 10937 10941 10943 10944 10945 10944 10942 10940 10940 10939 10937 10937 10936
10928 10930 10932 10934 10936 10938 10940 10941 10942 10942 10943 10945 10945 10945 10945 10945 10945 10944 10943 10943 10941 10940 10938 10935 10931 10927 10921 10916 10912 10918 10923 10929 10933 10936 10937 10935 10933 10932 10932 10931 10929 10927 10926
10917 10920 10924 10926 10927 10929 10932 10934 10936 10936 10937 10938 10939 10939 10939 10938 10938 10938 10937 10937 10936 10935 10934 10930 10926 10923 10917 10911 10908 10910 10915 10919 10924 10927 10928 10926 10925 10925 10924 10924 10921 10919 10916
10906 10909 10911 10914 10917 10922 10926 10928 10930 10930 10930 10932 10933 10933 10933 10932 10930 10930 10929 10930 10930 10929 10926 10925 10922 10920 10916 10912 10908 10908 10910 10913 10917 10918 10918 10917 10917 10918 10917 10915 10913 10910 10906
10896 10900 10902 10904 10910 10912 10915 10917 10918 10918 10918 10918 10922 10922 10923 10923 10922 10921 10921 10922 10923 10922 10920 10917 10915 10916 10914 10911 10909 10908 10907 10908 10908 10910 10910 10910 10911 10909 10908 10906 10904 10900 10896
10886 10889 10891 10895 10897 10900 10903 10906 10907 10907 10908 10909 10910 10912 10912 10913 10913 10913 10912 10913 10914 10914 10912 10909 10907 10907 10907 10907 10906 10905 10905 10904 10902 10903 10903 10902 10902 10900 10899 10897 10894 10890 10886
10877 10878 10880 10882 10885 10888 10891 10894 10896 10897 10895 10897 10899 10901 10903 10903 10903 10903 10904 10903 10904 10905 10903 10901 10899 10898 10898 10898 10898 10897 10898 10897 10896 10895 10894 10893 10893 10891 10888 10886 10882 10877 10871
10863 10865 10868 10870 10874 10875 10876 10882 10884 10883 10885 10886 10889 10888 10889 10890 10893 10893 10894 10894 10894 10896 10895 10894 10893 10891 10890 10890 10890 10889 10889 10888 10887 10886 10886 10885 10883 10881 10877 10874 10870 10865 10859